Tracking 31027 objects as of 19-Jul-2025
HD Live streaming from Space Station
objects crossing your sky now

INTELSAT 706

Track INTELSAT 706 now!
INTELSAT 706 is classified as:


NORAD ID: 23571
Int'l Code: 1995-023A
Perigee: 36,132.4 km
Apogee: 36,145.3 km
Inclination: 10.3 °
Period: 1,453.8 minutes
Semi major axis: 42509 km
RCS: 22.4876 m2 (large)
Launch date: May 17, 1995
Source: International Telecommunications Satellite Organization (ITSO)
Launch site: FRENCH GUIANA (FRGUI)

42 C-band, 36 Ku-band; broadcasting, business services, direct-to-home TV broadcasting, telecommunications, VSATnetworks Atlantic Ocean region.
Your satellite tracking list
STARLINK-30103
Track 1 satellite(s)




NASA's NSSDC Master Catalog

Two Line Element Set (TLE):
1 23571U 95023A   25199.27298962 -.00000136  00000-0  00000-0 0  9999
2 23571  10.2704  47.6990 0001526 296.2724  59.2367  0.99053242110014
Source of the keplerian elements: AFSPC